sat.trackr.live / text

‹ back to catalog

NANOSAT 1B

NORAD 35685 · 2009-041E

PAYLOAD ACTIVE UNKNOWN

§ Identity

Operator
Country
SPN
Launch date
2009-07-29
Launch site
TYMSC
Launch vehicle
Mass (kg)
RCS (m²)
0.25

External: N2YO · Heavens-Above · Gunter

§ Orbital elements

Epoch: 2026-05-24T19:59:28.093056Z

Period
96.45 min
Inclination
98.1141°
Eccentricity
0.0048332
Mean motion
14.92978325 rev/d
Perigee alt
555.0 km
Apogee alt
622.3 km
Semi-major
6,966.8 km
B*
1.0998e-4
RAAN
262.7907°
Arg perigee
240.5798°
Mean anomaly
119.0592°
Rev number
91,093

§ Raw data

NANOSAT 1B1 35685U 09041E   26144.83296404  .00001103  00000+0  10998-3 0  99982 35685  98.1141 262.7907 0048332 240.5798 119.0592 14.92978325910930

JSON: /api/v1/satellites/35685 · /tle

For live sub-satellite position, see the globe view (requires WebGL).

§ Visibility from observer

Set your observer location to see the next 7 days of passes ≥ 10°. The values pass through the URL so the page stays shareable.

No JS? Fill the form by hand. The geolocation button needs JavaScript.